Rugby, ND

5:02 AM CST on December 09, 2019 (GMT -0600)
Rugby Municipal

Weather History for KRUG - October, 2019

Change the Weather History Date:

Thursday, October 17, 2019

  Actual Average Record
Temperature  
Mean Temperature 42 °F -  
Max Temperature 55 °F 53 °F 78 °F (1963)
Min Temperature 30 °F 30 °F 7 °F (1948)
Degree Days  
Heating Degree Days 22    
Moisture  
Dew Point 37 °F    
Average Humidity 86    
Maximum Humidity 100    
Minimum Humidity 58    
Precipitation  
Precipitation 0.00 in - - ()
Sea Level Pressure  
Sea Level Pressure 29.69 in    
Wind  
Wind Speed 11 mph (SE)    
Max Wind Speed 22 mph    
Max Gust Speed 28 mph    
Visibility 10 miles    
Events      
Averages and records for this station are not official NWS values.
T = Trace of Precipitation, MM = Missing Value Source: NWS Daily Summary

Daily Weather History Graph

Daily Weather History Graph

Search for Another Location

Airport or City:

Astronomy

Oct. 17, 2019 Rise Set
Actual Time 8:02 AM CDT 6:47 PM CDT
Civil Twilight 7:30 AM CDT 7:19 PM CDT
Nautical Twilight 6:54 AM CDT 7:55 PM CDT
Astronomical Twilight 6:18 AM CDT 8:31 PM CDT
Moon 9:04 PM CDT (10/17) 11:50 AM CDT (10/17)
Length of Visible Light 11h 48m
Length of Day
10h 44m
Waning Gibbous, 86% of the Moon is Illuminated
Oct 17
Waning Gibbous
Oct 21
Last Quarter
Oct 27
New
Nov 4
First Quarter
Nov 12
Full

Hourly Weather History & Observations

Time (CDT) Temp. Windchill Dew Point Humidity Pressure Visibility Wind Dir Wind Speed Gust Speed Precip Events Conditions
12:15 AM 35.6 °F 27.5 °F 35.6 °F 100% 29.83 in 10.0 mi SE 11.5 mph - N/A   Clear
12:35 AM 35.6 °F 28.0 °F 35.6 °F 100% 29.83 in 10.0 mi SE 10.4 mph - N/A   Clear
12:55 AM - - - N/A% 29.83 in 10.0 mi SE 10.4 mph - N/A   Clear
1:15 AM 33.8 °F 26.4 °F 33.8 °F 100% 29.82 in 10.0 mi SE 9.2 mph - N/A   Clear
1:35 AM 33.8 °F 26.4 °F 33.8 °F 100% 29.82 in 10.0 mi SE 9.2 mph - N/A   Clear
1:55 AM 33.8 °F 27.0 °F 33.8 °F 100% 29.82 in 10.0 mi SE 8.1 mph - N/A   Clear
2:15 AM 33.8 °F 27.0 °F 33.8 °F 100% 29.81 in 10.0 mi ESE 8.1 mph - N/A   Clear
2:35 AM - - - N/A% 29.81 in 10.0 mi ESE 8.1 mph - N/A   Clear
2:55 AM 32.0 °F 26.4 °F 32.0 °F 100% 29.82 in 10.0 mi ESE 5.8 mph - N/A   Clear
3:15 AM 32.0 °F 25.6 °F 32.0 °F 100% 29.82 in 10.0 mi SE 6.9 mph - N/A   Clear
3:35 AM 32.0 °F 25.6 °F 32.0 °F 100% 29.82 in 10.0 mi ESE 6.9 mph - N/A   Clear
3:55 AM 32.0 °F 25.6 °F 32.0 °F 100% 29.81 in 10.0 mi ESE 6.9 mph - N/A   Clear
4:15 AM 32.0 °F 25.6 °F 32.0 °F 100% 29.80 in 10.0 mi ESE 6.9 mph - N/A   Clear
4:35 AM 32.0 °F 24.8 °F 32.0 °F 100% 29.80 in 10.0 mi SE 8.1 mph - N/A   Clear
4:55 AM 32.0 °F 25.6 °F 32.0 °F 100% 29.80 in 10.0 mi SSE 6.9 mph - N/A   Clear
5:15 AM 32.0 °F 25.6 °F 32.0 °F 100% 29.80 in 10.0 mi ESE 6.9 mph - N/A   Clear
5:35 AM 32.0 °F 25.6 °F 32.0 °F 100% 29.79 in 10.0 mi ESE 6.9 mph - N/A   Clear
5:55 AM 30.2 °F 22.6 °F 30.2 °F 100% 29.79 in 10.0 mi ESE 8.1 mph - N/A   Clear
6:35 AM 30.2 °F 22.6 °F 30.2 °F 100% 29.78 in 10.0 mi ESE 8.1 mph - N/A   Clear
6:55 AM 30.2 °F 24.3 °F 30.2 °F 100% 29.79 in 10.0 mi SE 5.8 mph - N/A   Clear
7:15 AM 30.2 °F 22.6 °F 30.2 °F 100% 29.79 in 10.0 mi SE 8.1 mph - N/A   Clear
7:35 AM 30.2 °F 21.9 °F 30.2 °F 100% 29.79 in 10.0 mi SE 9.2 mph - N/A   Clear
7:55 AM 30.2 °F 23.4 °F 30.2 °F 100% 29.77 in 9.0 mi ESE 6.9 mph - N/A   Clear
8:15 AM 30.2 °F 21.9 °F 30.2 °F 100% 29.76 in 9.0 mi SE 9.2 mph - N/A   Clear
8:35 AM 32.0 °F 23.6 °F 32.0 °F 100% 29.76 in 10.0 mi SE 10.4 mph - N/A   Clear
8:55 AM - - - N/A% 29.77 in 10.0 mi SE 9.2 mph - N/A   Clear
9:15 AM 33.8 °F 25.8 °F 33.8 °F 100% 29.77 in 10.0 mi SE 10.4 mph - N/A   Clear
9:35 AM 35.6 °F 28.6 °F 35.6 °F 100% 29.76 in 10.0 mi SE 9.2 mph - N/A   Clear
9:55 AM 35.6 °F 28.6 °F 35.6 °F 100% 29.76 in 10.0 mi SE 9.2 mph - N/A   Clear
10:35 AM 39.2 °F 33.0 °F 37.4 °F 93% 29.75 in 10.0 mi SE 9.2 mph - N/A   Clear
10:55 AM 41.0 °F 35.2 °F 37.4 °F 87% 29.74 in 10.0 mi SE 9.2 mph - N/A   Clear
11:15 AM 42.8 °F 37.5 °F 39.2 °F 87% 29.74 in 10.0 mi SE 9.2 mph - N/A   Clear
11:35 AM 42.8 °F 36.6 °F 39.2 °F 87% 29.73 in 10.0 mi ESE 11.5 mph - N/A   Clear
11:55 AM 44.6 °F 38.1 °F 39.2 °F 81% 29.72 in 10.0 mi SE 13.8 mph - N/A   Clear
12:15 PM 46.4 °F 40.4 °F 39.2 °F 76% 29.71 in 10.0 mi SE 13.8 mph 19.6 mph N/A   Clear
12:35 PM 50.0 °F - 41.0 °F 71% 29.70 in 10.0 mi SE 17.3 mph - N/A   Clear
12:55 PM 51.8 °F - 41.0 °F 67% 29.70 in 10.0 mi SSE 15.0 mph - N/A   Clear
1:35 PM 51.8 °F - 39.2 °F 62% 29.70 in 10.0 mi SSE 21.9 mph 27.6 mph N/A   Clear
1:55 PM 53.6 °F - 41.0 °F 62% 29.69 in 10.0 mi SSE 13.8 mph 26.5 mph N/A   Clear
2:15 PM 53.6 °F - 39.2 °F 58% 29.68 in 10.0 mi SE 18.4 mph 24.2 mph N/A   Clear
2:35 PM 53.6 °F - 41.0 °F 62% 29.67 in 10.0 mi SSE 17.3 mph - N/A   Clear
2:55 PM 55.4 °F - 41.0 °F 58% 29.66 in 10.0 mi SSE 12.7 mph 20.7 mph N/A   Clear
3:15 PM 55.4 °F - 41.0 °F 58% 29.65 in 10.0 mi SE 15.0 mph - N/A   Clear
3:55 PM 55.4 °F - 41.0 °F 58% 29.63 in 10.0 mi SE 17.3 mph - N/A   Clear
4:15 PM 55.4 °F - 41.0 °F 58% 29.62 in 10.0 mi ESE 13.8 mph - N/A   Clear
4:35 PM 51.8 °F - 41.0 °F 67% 29.61 in 10.0 mi SE 15.0 mph - N/A   Clear
4:55 PM 51.8 °F - 41.0 °F 67% 29.61 in 10.0 mi SE 17.3 mph - N/A   Clear
5:15 PM 51.8 °F - 41.0 °F 67% 29.60 in 10.0 mi SE 18.4 mph - N/A   Clear
5:35 PM 50.0 °F - 41.0 °F 71% 29.60 in 10.0 mi SE 15.0 mph 21.9 mph N/A   Clear
5:55 PM 50.0 °F - 41.0 °F 71% 29.60 in 10.0 mi SE 12.7 mph 20.7 mph N/A   Clear
6:15 PM 48.2 °F - 41.0 °F 76% 29.59 in 10.0 mi ESE 15.0 mph - N/A   Clear
6:35 PM 46.4 °F 40.4 °F 41.0 °F 81% 29.58 in 10.0 mi ESE 13.8 mph - N/A   Clear
6:55 PM 46.4 °F 39.8 °F 41.0 °F 81% 29.57 in 10.0 mi ESE 16.1 mph - N/A   Clear
7:15 PM 44.6 °F 37.8 °F 41.0 °F 87% 29.57 in 10.0 mi ESE 15.0 mph - N/A   Clear
7:35 PM 44.6 °F 37.4 °F 41.0 °F 87% 29.56 in 10.0 mi ESE 16.1 mph - N/A   Clear
7:55 PM 44.6 °F 36.9 °F 41.0 °F 87% 29.56 in 10.0 mi ESE 18.4 mph - N/A   Clear
8:15 PM 44.6 °F 36.9 °F 41.0 °F 87% 29.55 in 10.0 mi ESE 18.4 mph - N/A   Clear
8:35 PM 44.6 °F 36.9 °F 41.0 °F 87% 29.54 in 10.0 mi ESE 18.4 mph - N/A   Clear
8:55 PM 44.6 °F 37.2 °F 41.0 °F 87% 29.54 in 10.0 mi SE 17.3 mph 25.3 mph N/A   Clear
9:15 PM 46.4 °F 39.0 °F 41.0 °F 81% 29.53 in 10.0 mi SE 19.6 mph 27.6 mph N/A   Clear
9:35 PM 44.6 °F 37.8 °F 41.0 °F 87% 29.52 in 10.0 mi SE 15.0 mph - N/A   Clear
9:55 PM 44.6 °F 37.2 °F 41.0 °F 87% 29.53 in 10.0 mi SE 17.3 mph - N/A   Clear
10:15 PM 44.6 °F 36.9 °F 41.0 °F 87% 29.52 in 10.0 mi SE 18.4 mph - N/A   Clear
10:35 PM 44.6 °F 36.9 °F 41.0 °F 87% 29.50 in 10.0 mi SE 18.4 mph 24.2 mph N/A   Clear
10:55 PM 44.6 °F 38.1 °F 41.0 °F 87% 29.50 in 10.0 mi SE 13.8 mph 23.0 mph N/A   Clear
11:15 PM 46.4 °F 39.2 °F 41.0 °F 81% 29.48 in 10.0 mi SE 18.4 mph - N/A   Clear
11:35 PM 46.4 °F 39.2 °F 41.0 °F 81% 29.46 in 10.0 mi SE 18.4 mph 25.3 mph N/A   Clear
11:55 PM 46.4 °F 39.5 °F 41.0 °F 81% 29.45 in 10.0 mi SE 17.3 mph 25.3 mph N/A   Clear